Temperature
4 5 5 5 5 5 4 5 5 5 6 6 6 5 6 5 5 4 4 3 3 3 2 2 2 2 2 2 2 2 2 2 2 2 2 2 2 2 2 2 2 2 2 2
3 5 5 4 4 4 5 5 5 5 5 6 6 6 5 5 4 4 3 3 2 2 2 2 2 2 2 2 2 2 1 1 1 1 2 2 2 2 2 2 2 2 2 2
4 4 4 3 4 4 4 4 4 4 5 5 5 4 4 4 4 3 3 2 2 2 2 2 2 2 2 2 2 1 1 1 1 1 1 1 1 1 1 1 1 1 1 1
3 3 3 5 5 5 4 4 4 4 4 4 4 4 4 4 3 3 2 2 2 1 1 1 1 1 2 2 2 1 1 1 1 1 1 1 1 1 1 1 1 1 1 1
2 3 4 5 5 4 4 3 4 4 4 4 4 4 4 4 3 3 2 2 1 1 1 1 1 1 1 1 1 1 1 1 0 0 0 0 0 0 0 0 0 0 0 0
2 3 3 5 4 5 4 3 3 3 3 3 3 2 2 3 3 2 2 1 1 1 1 1 1 1 1 1 1 1 0 0 0 0 -0 -0 0 0 -0 -0 -0 -0 -0 -0
2 2 3 3 3 4 3 3 3 4 3 2 2 2 2 2 2 1 1 1 1 0 0 0 0 0 0 0 0 0 0 -0 -0 -0 -0 -0 -0 -0 -0 -1 -1 -1 -1 -1
2 2 3 3 2 2 2 3 3 3 3 2 2 2 1 1 1 1 0 0 0 -0 -0 -0 -0 -0 0 0 -0 -0 -1 -1 -1 -1 -1 -1 -1 -1 -1 -1 -1 -1 -2 -2
2 3 4 3 3 3 3 3 3 3 2 2 2 1 1 0 0 0 -0 -0 -0 -1 -1 -1 -0 -0 -0 -0 -1 -1 -1 -1 -1 -1 -1 -1 -1 -1 -1 -1 -1 -2 -2 -2
2 2 3 3 3 3 3 3 3 2 2 2 1 1 0 -0 -0 -0 -0 -1 -1 -1 -1 -1 -1 -1 -1 -1 -1 -1 -1 -1 -1 -1 -1 -1 -1 -1 -2 -2 -2 -2 -2 -2
1 2 3 3 3 3 3 3 2 2 2 1 1 0 -0 -0 -1 -1 -1 -1 -1 -2 -2 -1 -1 -1 -1 -1 -2 -2 -2 -2 -2 -2 -2 -2 -2 -2 -2 -2 -2 -2 -2 -2
2 3 2 3 3 3 2 2 2 2 1 1 1 0 -0 -1 -1 -1 -1 -1 -2 -2 -2 -2 -2 -1 -2 -2 -2 -2 -2 -2 -2 -2 -2 -2 -2 -2 -2 -3 -3 -3 -3 -3
3 3 3 3 3 3 2 2 2 1 1 1 0 -0 -1 -1 -1 -1 -1 -1 -2 -2 -2 -2 -2 -2 -2 -2 -2 -2 -2 -3 -3 -3 -3 -3 -3 -3 -3 -3 -3 -3 -3 -3
3 3 2 2 2 2 2 2 1 1 1 0 -0 -0 -1 -1 -1 -1 -2 -2 -2 -2 -2 -2 -2 -2 -2 -3 -3 -3 -3 -3 -3 -3 -3 -3 -3 -3 -3 -3 -3 -3 -3 -4
2 2 2 2 1 1 1 1 1 1 0 0 -0 -1 -1 -1 -1 -2 -2 -2 -2 -2 -2 -2 -2 -3 -3 -3 -3 -3 -3 -3 -3 -3 -3 -4 -4 -4 -4 -4 -4 -4 -4 -4
2 1 1 1 1 1 1 1 1 0 0 -0 -1 -1 -1 -1 -2 -2 -2 -2 -2 -2 -2 -3 -3 -3 -3 -3 -3 -3 -3 -4 -4 -4 -4 -4 -4 -4 -4 -4 -4 -4 -4 -4
1 1 1 0 1 1 1 1 0 0 -0 -0 -1 -1 -1 -2 -2 -2 -2 -3 -3 -3 -3 -3 -3 -3 -3 -4 -4 -4 -4 -4 -4 -4 -4 -4 -4 -4 -5 -5 -5 -5 -5 -5
1 1 1 1 1 1 1 0 0 -0 -0 -1 -1 -1 -2 -2 -2 -2 -3 -3 -3 -3 -3 -3 -4 -4 -4 -4 -4 -4 -4 -4 -4 -4 -4 -5 -5 -5 -5 -5 -5 -5 -5 -5
1 1 1 1 0 0 0 0 -0 -0 -1 -1 -1 -2 -2 -2 -3 -3 -3 -3 -4 -4 -4 -4 -4 -4 -4 -4 -4 -4 -4 -4 -4 -5 -5 -5 -5 -5 -5 -5 -5 -5 -5 -5
1 0 0 0 0 -0 -0 -0 -1 -1 -1 -1 -2 -2 -2 -3 -3 -3 -4 -4 -4 -4 -4 -4 -4 -4 -4 -4 -5 -5 -5 -5 -5 -5 -5 -5 -5 -5 -5 -6 -6 -6 -6 -6
0 0 0 -0 -0 -1 -1 -1 -1 -1 -2 -2 -2 -2 -3 -3 -3 -3 -4 -4 -4 -4 -4 -4 -5 -5 -5 -5 -5 -5 -5 -5 -5 -5 -6 -6 -6 -6 -6 -6 -6 -6 -6 -6
-0 -0 -0 -1 -1 -1 -1 -1 -2 -2 -2 -2 -2 -3 -3 -3 -3 -4 -4 -4 -4 -4 -5 -5 -5 -5 -5 -5 -5 -5 -5 -6 -6 -6 -6 -6 -6 -6 -6 -6 -6 -6 -7 -7
-1 -1 -1 -1 -1 -1 -1 -2 -2 -2 -2 -2 -3 -3 -3 -3 -3 -4 -4 -4 -4 -5 -5 -5 -5 -5 -5 -6 -5 -6 -6 -6 -6 -6 -6 -6 -6 -6 -7 -7 -7 -7 -7 -7
-1 -1 -1 -2 -2 -2 -2 -2 -2 -2 -2 -3 -3 -3 -3 -3 -4 -4 -4 -4 -5 -5 -5 -5 -6 -6 -6 -6 -6 -6 -6 -6 -6 -6 -6 -7 -7 -7 -7 -7 -7 -7 -7 -7
-2 -2 -2 -2 -2 -2 -2 -2 -3 -3 -3 -3 -3 -4 -4 -4 -4 -4 -5 -5 -5 -5 -6 -6 -6 -6 -6 -6 -6 -6 -6 -6 -7 -7 -7 -7 -7 -7 -7 -7 -7 -7 -7 -7
-2 -2 -2 -2 -2 -2 -3 -3 -3 -3 -3 -4 -4 -4 -4 -4 -5 -5 -5 -5 -5 -6 -6 -6 -6 -6 -6 -6 -6 -6 -7 -7 -7 -7 -7 -7 -7 -7 -7 -8 -8 -8 -8 -8
-3 -3 -3 -3 -3 -3 -3 -3 -4 -4 -4 -4 -4 -5 -5 -5 -5 -5 -5 -6 -6 -6 -6 -6 -6 -7 -7 -7 -7 -7 -7 -7 -7 -7 -8 -8 -8 -8 -8 -8 -8 -8 -8 -8
Wind_Speed
7 8 7 7 8 7 8 8 8 8 9 9 6 5 4 3 3 3 3 3 4 4 3 3 3 3 3 3 2 2 2 2 2 3 3 2 1 1 1 1 2 2 2 1
6 7 6 8 9 9 10 9 10 11 12 8 6 4 4 4 3 3 3 4 4 4 4 4 4 4 3 3 3 2 2 2 2 2 2 2 1 1 0 1 1 1 1 1
4 3 5 7 9 9 7 7 7 10 10 6 5 4 5 4 2 3 3 4 4 4 4 4 4 4 3 3 2 1 2 2 2 2 2 2 1 1 0 1 1 1 1 1
3 3 6 5 2 5 7 7 7 7 6 6 5 5 4 2 2 3 4 4 4 4 5 5 4 4 3 2 2 1 2 2 2 2 2 2 1 1 0 0 0 0 1 1
2 4 8 4 2 1 3 5 5 6 6 6 4 4 3 2 3 3 3 3 4 4 4 4 4 3 2 2 1 2 2 2 2 2 2 2 1 1 0 0 0 0 0 1
2 3 5 3 1 1 1 4 2 2 3 4 4 4 5 4 4 4 3 3 3 3 4 4 4 3 2 1 1 2 2 2 2 2 2 2 2 1 1 1 0 1 0 0
5 5 6 2 1 2 2 5 3 1 2 2 2 4 4 5 4 3 3 3 3 3 3 3 3 3 2 2 2 2 2 2 2 2 2 2 2 1 1 1 1 1 1 1
5 5 7 3 4 4 4 2 2 2 2 2 3 4 4 4 4 3 4 4 3 3 4 4 3 3 2 2 3 2 2 2 2 2 2 2 2 2 1 1 1 1 1 1
7 7 3 4 4 3 2 3 3 2 3 2 3 4 3 3 4 3 3 3 3 3 4 4 3 3 3 3 3 2 2 2 2 2 2 2 1 1 1 1 1 0 1 1
5 8 5 5 4 4 3 3 3 3 3 2 3 4 3 3 3 3 3 3 3 3 4 4 4 3 3 3 3 2 2 2 1 1 2 2 1 1 1 1 1 0 0 0
8 8 6 6 6 4 3 2 2 2 2 2 3 4 3 3 3 3 3 3 3 3 4 4 4 3 3 3 2 2 2 1 1 1 1 2 2 2 1 1 1 0 0 1
9 6 5 5 3 3 3 4 4 3 3 3 3 4 4 3 3 3 3 3 3 3 4 4 3 3 3 3 2 1 2 1 1 1 1 1 2 3 4 3 4 3 3 2
8 5 5 5 3 3 4 4 3 3 4 4 3 3 3 3 3 3 3 3 3 3 4 3 3 3 3 3 3 2 2 2 1 1 1 1 1 1 2 3 4 4 4 3
5 4 4 4 4 3 3 3 2 3 3 3 3 3 2 3 3 3 3 3 3 3 3 2 2 2 2 2 3 2 2 2 2 1 1 1 1 1 1 1 2 2 3 3
6 5 5 4 3 3 3 2 3 3 3 3 2 2 2 2 3 3 3 2 2 2 3 2 2 3 2 2 2 2 2 1 1 1 1 1 1 1 1 1 1 1 2 2
5 4 4 5 5 4 4 4 4 4 3 3 3 3 2 3 3 2 2 1 1 2 2 2 2 2 2 2 2 2 1 2 2 1 1 1 1 1 1 1 1 1 1 1
5 5 5 5 6 5 5 5 5 5 4 4 4 3 2 2 2 2 2 2 1 2 1 1 2 2 2 1 1 1 1 1 2 1 1 1 1 1 1 1 1 1 1 1
7 6 6 6 5 5 5 4 4 4 4 3 3 2 2 3 3 3 2 1 1 1 1 1 1 1 1 1 1 1 1 0 0 0 1 1 1 1 1 1 1 1 1 1
4 5 5 4 4 4 4 4 4 3 3 3 3 3 4 3 3 2 1 1 1 2 2 1 1 0 0 1 1 0 1 0 0 0 0 1 1 1 0 0 1 1 1 1
2 3 3 3 2 3 3 3 3 2 3 3 3 3 3 3 2 2 1 2 2 2 1 0 0 0 0 1 1 0 0 0 0 0 0 0 0 0 0 0 0 0 0 0
2 2 2 2 2 2 3 3 3 3 3 4 4 4 3 3 2 2 1 2 2 1 1 1 1 0 0 1 1 0 0 0 0 0 0 0 0 0 0 0 0 0 0 0
2 2 2 2 2 1 1 2 2 3 3 3 3 3 2 2 2 2 2 2 1 1 1 1 1 1 1 0 0 0 0 0 0 0 0 0 0 0 1 0 0 0 0 0
2 2 2 2 2 1 1 1 2 3 3 3 3 3 3 3 2 2 2 2 1 1 1 1 1 1 1 1 1 1 0 0 0 0 0 0 0 0 0 0 1 1 1 1
2 2 2 2 2 2 1 1 2 2 2 2 3 3 3 2 2 2 2 2 2 2 1 2 2 2 1 1 1 1 0 0 0 0 0 0 0 0 0 1 1 1 1 1
2 2 2 3 3 3 3 2 2 2 2 2 2 2 2 2 2 2 2 2 2 2 1 2 2 2 1 1 1 1 1 1 1 0 1 1 1 1 1 1 1 1 1 1
3 3 3 3 3 3 3 3 2 2 2 2 1 1 1 1 2 2 2 2 2 2 1 1 1 1 1 1 1 1 0 1 1 1 1 1 1 1 1 1 1 1 1 1
3 3 2 2 2 3 3 3 3 3 3 3 2 2 2 2 2 2 2 2 2 1 1 1 1 1 1 1 1 0 0 1 1 1 1 1 1 1 1 1 1 1 1 1
Wind_Direction
269 280 271 260 254 237 232 241 250 271 279 287 291 303 317 336 345 347 343 335 330 327 325 324 321 322 320 318 324 322 322 325 314 315 310 298 289 280 250 242 238 230 218 229
271 261 265 270 259 245 245 249 255 273 279 286 298 320 330 327 329 328 322 321 321 327 323 320 320 317 314 313 316 317 309 306 317 325 322 312 294 291 286 253 229 210 200 204
270 285 298 267 238 223 231 232 237 254 266 292 309 311 302 299 312 306 314 321 321 317 313 308 306 306 302 302 314 325 317 322 340 342 333 325 319 343 283 250 222 178 172 154
278 309 254 244 210 206 227 241 235 250 272 288 293 299 296 295 317 315 322 319 318 316 316 314 312 314 311 318 325 323 325 331 345 351 327 323 326 319 299 271 177 151 148 143
240 261 269 264 252 216 217 259 237 250 276 297 317 319 296 330 340 323 322 320 318 324 323 322 318 314 323 329 334 333 327 329 331 327 318 316 310 289 327 54 60 88 107 109
232 247 254 252 125 36 79 272 281 271 287 318 346 314 295 328 340 347 351 347 339 335 334 329 324 330 336 331 329 318 320 326 333 335 329 318 317 337 42 78 75 79 69 69
230 244 261 245 164 96 180 261 324 327 304 309 284 274 296 325 333 339 339 338 343 339 332 324 331 340 331 328 313 320 337 350 354 353 343 335 350 11 46 56 57 61 64 52
206 230 251 173 135 186 230 295 326 318 305 294 293 303 317 323 327 336 340 341 346 344 334 332 338 341 333 330 336 354 1 3 352 350 344 349 14 22 42 66 69 51 61 53
208 225 242 175 206 229 245 274 283 299 303 295 293 294 306 313 319 328 333 333 342 338 328 332 344 348 334 333 351 357 4 356 342 344 350 4 40 42 34 42 72 56 69 65
258 259 256 243 246 246 240 252 269 273 277 281 277 284 291 299 306 314 320 323 330 326 318 321 336 343 338 340 352 356 348 337 340 8 18 26 37 51 50 42 63 94 91 81
255 267 275 254 241 239 237 252 269 277 286 270 266 277 277 284 291 298 309 311 311 305 302 309 324 332 340 347 357 354 340 352 27 36 38 31 26 25 24 22 37 99 90 98
242 245 242 262 250 228 226 241 242 248 273 277 255 261 276 281 281 285 291 300 309 307 305 309 323 333 342 351 351 349 340 351 34 43 48 53 48 33 31 29 27 42 50 52
244 261 263 274 268 236 231 237 240 238 243 261 262 254 264 277 282 285 289 294 298 300 303 309 322 328 343 351 353 344 333 342 15 27 38 45 51 61 46 34 31 35 44 51
246 252 264 263 259 245 230 228 232 253 254 247 252 254 259 269 284 282 281 286 292 300 304 308 314 321 342 352 351 345 347 350 6 19 21 24 33 43 64 78 53 29 30 42
238 234 239 255 260 253 230 216 227 249 250 253 246 241 244 257 268 276 286 301 311 310 308 313 317 324 349 357 353 346 348 9 22 21 17 20 29 46 56 71 70 51 49 40
235 226 225 233 238 235 226 222 228 241 241 239 235 236 242 249 262 278 287 289 291 287 290 298 303 321 349 355 349 349 352 357 15 22 25 34 42 45 46 59 62 54 41 34
214 227 228 232 235 235 229 226 226 232 233 228 228 223 225 246 271 278 285 289 272 266 272 281 296 328 342 351 350 336 352 358 2 19 21 15 35 46 45 54 55 42 22 7
224 228 224 221 223 230 234 228 223 222 222 221 206 197 210 224 244 264 285 303 315 310 302 291 305 334 352 10 12 349 340 337 353 27 14 14 20 39 39 40 33 31 24 13
227 223 223 221 219 219 227 225 219 210 204 192 193 209 219 228 237 250 265 258 255 276 294 283 296 24 30 344 360 346 327 329 357 23 29 315 347 24 41 21 2 7 23 25
215 207 204 209 206 207 215 216 205 201 196 184 187 199 217 230 223 219 225 238 248 257 253 251 203 166 249 289 336 323 278 280 320 11 8 343 318 332 348 349 354 0 15 9
206 198 197 204 214 214 208 201 191 196 193 181 185 202 217 224 205 191 209 260 281 220 196 206 150 175 262 288 293 273 246 257 249 234 257 270 299 314 312 310 314 314 333 349
206 201 208 203 196 220 210 175 174 177 180 187 189 188 193 211 208 215 232 235 237 190 165 177 166 215 234 231 119 122 48 31 5 311 272 254 236 235 248 258 265 280 294 266
208 203 203 200 193 192 143 159 171 175 185 191 193 193 199 210 202 203 244 238 196 198 171 177 206 208 188 133 118 120 98 74 358 294 263 259 259 254 258 270 271 265 248 240
203 198 194 176 147 155 196 204 170 170 175 186 197 198 191 193 216 220 210 194 187 184 179 195 200 189 157 118 126 131 133 160 265 293 277 269 259 258 262 265 271 277 272 274
200 194 184 177 185 201 198 175 155 164 168 184 203 207 204 196 201 199 173 181 189 171 171 197 189 175 133 121 139 159 187 217 232 235 243 257 263 264 267 263 259 261 274 276
200 198 202 205 205 191 176 174 182 185 177 185 202 194 178 167 163 162 162 168 172 178 171 167 164 159 140 140 148 162 195 271 294 293 284 275 268 263 268 268 265 258 260 265
192 190 185 197 213 191 181 183 190 197 192 186 192 186 167 161 159 161 161 160 165 168 163 151 147 155 160 155 152 171 231 264 272 274 273 277 271 264 268 263 258 255 256 250
Height
1495 1491 1489 1488 1488 1488 1490 1487 1486 1477 1473 1468 1467 1466 1466 1465 1464 1463 1462 1461 1460 1458 1457 1455 1453 1450 1449 1447 1446 1445 1443 1442 1441 1441 1440 1440 1439 1439 1440 1440 1439 1439 1439 1439
1494 1488 1487 1486 1483 1483 1483 1481 1479 1476 1472 1467 1466 1465 1464 1463 1462 1461 1460 1459 1458 1456 1454 1452 1450 1448 1446 1444 1443 1442 1441 1440 1439 1438 1437 1437 1436 1436 1436 1436 1436 1436 1436 1436
1492 1487 1487 1486 1478 1478 1477 1475 1475 1474 1469 1465 1464 1463 1462 1461 1460 1459 1458 1457 1455 1453 1452 1450 1448 1446 1444 1442 1441 1440 1439 1438 1437 1436 1435 1434 1434 1433 1433 1433 1434 1433 1433 1434
1495 1493 1491 1474 1468 1468 1470 1469 1469 1468 1465 1464 1463 1462 1461 1460 1459 1457 1455 1454 1452 1451 1449 1447 1445 1443 1442 1440 1439 1438 1437 1436 1435 1434 1433 1432 1431 1431 1431 1431 1431 1431 1431 1431
1495 1492 1480 1471 1468 1467 1469 1468 1465 1465 1463 1462 1461 1459 1458 1458 1457 1456 1454 1452 1451 1449 1447 1445 1442 1441 1439 1438 1437 1436 1435 1434 1433 1432 1432 1431 1430 1429 1429 1429 1429 1428 1429 1429
1493 1490 1482 1469 1467 1465 1468 1469 1463 1462 1462 1461 1460 1461 1458 1456 1455 1453 1452 1450 1448 1447 1445 1442 1440 1439 1437 1436 1435 1434 1433 1433 1432 1431 1430 1429 1428 1427 1427 1427 1427 1426 1427 1427
1492 1488 1475 1468 1466 1466 1473 1468 1461 1460 1460 1461 1461 1461 1458 1455 1453 1451 1450 1448 1446 1444 1442 1440 1438 1437 1435 1434 1433 1432 1432 1431 1430 1429 1428 1427 1427 1426 1425 1425 1425 1425 1425 1425
1487 1485 1476 1465 1466 1468 1465 1461 1460 1459 1459 1459 1459 1457 1455 1454 1452 1449 1447 1445 1443 1441 1439 1438 1436 1435 1433 1432 1431 1431 1429 1428 1428 1427 1426 1426 1425 1424 1424 1424 1424 1424 1424 1424
1475 1471 1462 1461 1461 1461 1460 1460 1459 1458 1458 1457 1456 1455 1453 1452 1450 1448 1446 1443 1441 1439 1437 1435 1434 1433 1431 1430 1429 1428 1427 1426 1425 1425 1425 1424 1424 1423 1423 1423 1423 1423 1423 1423
1468 1461 1459 1459 1458 1458 1457 1457 1456 1456 1455 1455 1454 1452 1451 1449 1448 1446 1444 1442 1440 1438 1435 1433 1432 1431 1429 1428 1427 1426 1424 1424 1423 1423 1423 1423 1423 1423 1422 1422 1422 1422 1422 1422
1464 1458 1456 1454 1454 1454 1454 1454 1454 1453 1453 1452 1451 1449 1448 1446 1445 1443 1441 1440 1438 1436 1434 1432 1430 1429 1428 1426 1425 1424 1423 1422 1422 1422 1422 1421 1421 1422 1422 1422 1422 1422 1421 1422
1456 1452 1452 1450 1449 1450 1450 1450 1450 1450 1449 1449 1448 1446 1445 1444 1443 1441 1439 1437 1435 1434 1432 1430 1428 1427 1426 1425 1423 1422 1421 1421 1420 1420 1420 1420 1420 1420 1421 1421 1421 1422 1422 1422
1447 1447 1447 1445 1445 1446 1446 1446 1446 1446 1446 1445 1444 1444 1442 1441 1440 1438 1436 1435 1433 1432 1430 1428 1427 1425 1424 1423 1422 1421 1420 1420 1419 1419 1419 1419 1419 1419 1420 1421 1421 1421 1421 1421
1443 1443 1442 1442 1442 1442 1442 1443 1443 1443 1442 1442 1441 1440 1439 1438 1437 1435 1434 1432 1431 1430 1428 1427 1425 1424 1423 1422 1421 1420 1420 1419 1419 1419 1418 1418 1419 1419 1419 1419 1420 1420 1421 1421
1438 1439 1438 1438 1438 1438 1439 1439 1439 1439 1438 1438 1437 1436 1435 1434 1433 1433 1432 1430 1429 1427 1426 1425 1423 1423 1422 1421 1420 1419 1419 1419 1419 1419 1418 1418 1418 1418 1419 1419 1419 1419 1420 1420
1433 1434 1434 1434 1434 1434 1435 1435 1435 1435 1435 1434 1434 1433 1432 1432 1431 1430 1429 1428 1426 1425 1424 1423 1422 1421 1421 1420 1419 1419 1418 1418 1418 1418 1418 1418 1418 1418 1418 1418 1418 1419 1419 1420
1429 1428 1429 1429 1429 1430 1431 1431 1431 1431 1431 1431 1430 1430 1429 1428 1427 1427 1426 1426 1425 1423 1423 1422 1421 1420 1420 1419 1418 1418 1418 1418 1418 1417 1417 1417 1417 1417 1418 1418 1418 1418 1419 1419
1423 1424 1424 1425 1425 1426 1426 1427 1427 1428 1428 1428 1427 1427 1426 1425 1424 1424 1424 1423 1422 1422 1421 1420 1420 1419 1418 1418 1418 1417 1417 1417 1417 1417 1417 1417 1417 1417 1418 1418 1418 1418 1418 1419
1418 1419 1420 1421 1421 1422 1422 1423 1423 1424 1424 1424 1424 1423 1423 1422 1422 1422 1421 1420 1420 1419 1419 1419 1418 1418 1417 1417 1417 1416 1416 1416 1416 1416 1416 1416 1417 1417 1417 1417 1417 1417 1417 1417
1414 1415 1416 1417 1418 1418 1419 1419 1420 1420 1420 1420 1420 1420 1420 1420 1419 1419 1419 1418 1418 1418 1417 1417 1416 1416 1416 1416 1416 1416 1415 1415 1415 1416 1416 1416 1416 1416 1416 1416 1415 1416 1416 1417
1411 1412 1413 1413 1414 1415 1415 1416 1416 1416 1417 1417 1417 1417 1417 1417 1417 1417 1416 1416 1416 1416 1416 1416 1415 1415 1415 1415 1414 1414 1414 1414 1414 1415 1415 1415 1415 1414 1414 1414 1415 1415 1415 1415
1409 1410 1410 1410 1411 1412 1412 1412 1413 1413 1414 1414 1414 1414 1414 1414 1415 1415 1415 1415 1415 1415 1414 1414 1414 1414 1414 1413 1413 1413 1413 1413 1413 1413 1413 1413 1413 1413 1413 1413 1413 1413 1414 1414
1407 1407 1407 1408 1408 1409 1409 1410 1410 1410 1411 1411 1412 1412 1412 1412 1412 1412 1412 1413 1413 1413 1412 1412 1412 1412 1412 1412 1412 1412 1412 1412 1411 1412 1412 1412 1411 1411 1411 1411 1412 1412 1412 1412
1404 1404 1405 1405 1406 1406 1406 1407 1408 1408 1408 1409 1409 1410 1410 1410 1410 1410 1411 1411 1411 1411 1411 1411 1411 1411 1411 1410 1410 1410 1410 1410 1410 1410 1410 1410 1410 1410 1410 1410 1410 1410 1410 1410
1401 1402 1402 1402 1403 1403 1404 1405 1405 1405 1406 1406 1407 1407 1407 1408 1408 1408 1408 1408 1409 1408 1408 1409 1409 1409 1409 1409 1409 1409 1409 1409 1408 1408 1408 1408 1408 1408 1408 1408 1408 1408 1408 1408
1398 1399 1399 1400 1400 1401 1401 1402 1402 1403 1403 1403 1404 1404 1405 1405 1405 1406 1406 1406 1406 1406 1406 1406 1406 1407 1407 1407 1407 1407 1407 1407 1406 1406 1406 1406 1406 1406 1406 1406 1406 1406 1406 1406
1395 1396 1396 1397 1397 1398 1398 1399 1399 1400 1400 1401 1401 1402 1402 1402 1403 1403 1403 1403 1404 1404 1404 1404 1404 1405 1405 1405 1405 1405 1405 1405 1405 1404 1404 1404 1404 1403 1403 1403 1403 1403 1403 1403